sat.trackr.live / text

‹ back to catalog

LEMUR-2-FINNIAN

NORAD 66782 · 2025-276DW

PAYLOAD ACTIVE UNKNOWN

§ Identity

Operator
Country
US
Launch date
2025-11-28
Launch site
AFWTR
Launch vehicle
Mass (kg)
RCS (m²)

Purposes: earth_obs

External: N2YO · Heavens-Above · Gunter

§ Orbital elements

Epoch: 2026-09-19T10:14:53.809152Z

Period
95.93 min
Inclination
97.5219°
Eccentricity
0.0010644
Mean motion
15.01032450 rev/d
Perigee alt
556.3 km
Apogee alt
571.1 km
Semi-major
6,941.8 km
B*
2.4907e-4
RAAN
330.4981°
Arg perigee
134.4186°
Mean anomaly
225.7912°
Rev number
3,413

§ Raw data

LEMUR-2-FINNIAN1 66782U 25276DW  26262.42701168  .00003128  00000+0  24907-3 0  99962 66782  97.5219 330.4981 0010644 134.4186 225.7912 15.01032450 34134

JSON: /api/v1/satellites/66782 · /tle

For live sub-satellite position, see the globe view (requires WebGL).

§ Visibility from observer

Set your observer location to see the next 7 days of passes ≥ 10°. The values pass through the URL so the page stays shareable.

No JS? Fill the form by hand. The geolocation button needs JavaScript.